WA0SOP Weather Reports


time (UTC)temp
F
wind
direction
speed
knots
gust
knots
rain 1hr
in
rain 24hr
in
rain mn
in
humidity
%
barometer
mb
20260507093037 34 202 0.9 2.6 0.00 0.00 0.00 54 1012.4
20260507091504 34 205 0.0 0.9 0.00 0.00 0.00 54 1012.6
20260507090046 35 205 0.0 4.3 0.00 0.00 0.00 54 1012.6
20260507084521 35 360 0.9 4.3 0.00 0.00 0.00 54 1012.7
20260507083049 34 202 1.7 4.3 0.00 0.00 0.00 55 1012.8
20260507081520 34 360 1.7 4.3 0.00 0.00 0.00 51 1012.8
20260507080105 33 198 0.0 0.9 0.00 0.00 0.00 52 1012.8
20260507074544 31 198 0.0 4.3 0.00 0.00 0.00 53 1013.1
20260507073007 31 136 0.0 1.7 0.00 0.00 0.00 53 1013.3
20260507071547 31 135 0.9 4.3 0.00 0.00 0.00 53 1013.6
20260507070018 31 149 1.7 4.3 0.00 0.00 0.00 52 1013.7
20260507064556 32 144 0.9 2.6 0.00 0.00 0.00 53 1014.0
20260507063028 32 145 0.9 3.5 0.00 0.00 0.00 51 1014.4
20260507061608 32 151 0.9 4.3 0.00 0.00 0.00 51 1014.6
20260507060046 33 153 0.0 2.6 0.00 0.00 0.00 51 1014.7
20260507054510 34 202 0.0 1.7 0.00 0.00 0.00 50 1015.0
20260507053053 34 207 0.0 0.9 0.00 0.00 0.00 49 1015.2
20260507051533 34 206 0.0 0.0 0.00 0.00 0.00 49 1015.2
20260507050104 35 207 0.0 0.0 0.00 0.00 0.00 48 1015.4
20260507044533 36 211 0.0 0.0 0.00 0.00 0.00 46 1015.6
20260507043006 37 209 0.0 0.9 0.00 0.00 0.00 44 1015.7
20260507041547 38 207 0.0 1.7 0.00 0.00 0.00 43 1015.8
20260507040017 39 360 0.0 2.6 0.00 0.00 0.00 41 1015.9
20260507034602 40 360 0.0 0.9 0.00 0.00 0.00 39 1016.0
20260507033034 41 360 0.0 0.0 0.00 0.00 0.00 39 1016.1
20260507031504 42 360 0.0 0.9 0.00 0.00 0.00 37 1016.3
20260507030046 43 360 0.0 0.9 0.00 0.00 0.00 37 1016.3
20260507024528 44 360 0.0 0.0 0.00 0.00 0.00 34 1016.4
20260507023100 45 360 0.0 0.9 0.00 0.00 0.00 34 1016.3
20260507021535 46 360 0.0 0.0 0.00 0.00 0.00 32 1016.3
20260507020109 48 360 0.0 0.0 0.00 0.00 0.00 29 1016.2
20260507014540 51 360 0.0 0.0 0.00 0.00 0.00 24 1016.2
20260507013005 52 360 0.0 1.7 0.00 0.00 0.00 24 1016.1
20260507011546 53 360 0.0 0.9 0.00 0.00 0.00 23 1016.2
20260507010017 54 265 0.0 5.2 0.00 0.00 0.00 22 1016.4
20260507004551 55 264 0.9 4.3 0.00 0.00 0.00 19 1016.4
20260507003021 56 263 1.7 7.0 0.00 0.00 0.00 19 1016.6
20260507001603 56 263 1.7 9.6 0.00 0.00 0.00 18 1016.6
20260507000031 56 258 0.9 7.0 0.00 0.00 0.00 19 1016.8
20260506234621 56 281 2.6 8.7 0.00 0.00 0.00 18 1016.9
20260506233038 57 267 3.5 9.6 0.00 0.00 0.00 17 1017.1
20260506231506 57 255 1.7 7.8 0.00 0.00 0.00 19 1017.1
20260506230052 57 258 4.3 10.4 0.00 0.00 0.00 18 1017.2
20260506224518 57 290 1.7 9.6 0.00 0.00 0.00 19 1017.3
20260506223059 57 275 1.7 11.3 0.00 0.00 0.00 18 1017.5
20260506221524 56 279 2.6 8.7 0.00 0.00 0.00 21 1017.7
20260506214532 57 306 2.6 8.7 0.00 0.00 0.00 18 1018.1
20260506213112 57 259 2.6 12.2 0.00 0.00 0.00 17 1018.1
20260506211547 57 285 2.6 9.6 0.00 0.00 0.00 20 1018.3
20260506210014 56 244 0.9 6.1 0.00 0.00 0.00 19 1018.5
20260506204555 56 301 4.3 12.2 0.00 0.00 0.00 21 1018.8
20260506203020 58 360 1.7 8.7 0.00 0.00 0.00 20 1019.1
20260506201555 55 360 3.5 13.9 0.00 0.00 0.00 20 1019.1
20260506200029 55 360 0.9 5.2 0.00 0.00 0.00 20 1019.4
20260506194607 54 360 1.7 8.7 0.00 0.00 0.00 22 1019.4
20260506193040 54 360 1.7 9.6 0.00 0.00 0.00 24 1019.7
20260506191512 55 360 2.6 10.4 0.00 0.00 0.00 21 1019.6
20260506190051 54 360 3.5 12.2 0.00 0.00 0.00 21 1019.9
20260506184524 54 244 4.3 10.4 0.00 0.00 0.00 20 1020.0
20260506181537 53 360 1.7 9.6 0.00 0.00 0.00 24 1020.3
20260506180007 53 360 3.5 12.2 0.00 0.00 0.00 23 1020.4
20260506174555 51 360 3.5 9.6 0.00 0.00 0.00 23 1020.6
20260506173025 52 360 2.6 11.3 0.00 0.00 0.00 23 1020.6
20260506171539 51 360 3.5 12.2 0.00 0.00 0.00 23 1020.7
20260506170059 51 360 0.9 8.7 0.00 0.00 0.00 26 1020.8
20260506164524 52 360 3.5 8.7 0.00 0.00 0.00 24 1021.1
20260506163114 51 360 4.3 16.5 0.00 0.00 0.00 26 1021.1
20260506161539 51 303 3.5 13.9 0.00 0.00 0.00 25 1021.0
20260506160006 50 264 1.7 9.6 0.00 0.00 0.00 27 1021.1
20260506154548 50 360 2.6 11.3 0.00 0.00 0.00 26 1021.0
20260506153016 50 301 3.5 8.7 0.00 0.00 0.00 27 1021.2
20260506151556 49 321 3.5 9.6 0.00 0.00 0.00 29 1021.1
20260506150023 48 305 5.2 10.4 0.00 0.00 0.00 30 1021.1
20260506144613 47 306 2.6 7.8 0.00 0.00 0.00 33 1021.1
20260506143039 47 282 2.6 8.7 0.00 0.00 0.00 34 1021.3
20260506141505 45 360 0.9 4.3 0.00 0.00 0.00 39 1021.5
20260506140057 43 360 0.9 4.3 0.00 0.00 0.00 45 1021.4
20260506134510 40 360 0.9 7.0 0.00 0.00 0.00 47 1021.3
20260506133109 39 360 0.0 3.5 0.00 0.00 0.00 50 1021.3
20260506131532 37 360 0.0 3.5 0.00 0.00 0.00 52 1021.3
20260506130140 35 360 0.0 1.7 0.00 0.00 0.00 54 1021.3
20260506124528 33 360 0.0 3.5 0.00 0.00 0.00 54 1021.1
20260506123111 31 360 0.0 0.9 0.00 0.00 0.00 55 1021.0
20260506121549 29 317 0.0 0.9 0.00 0.00 0.00 55 1020.7
20260506120118 27 319 0.0 0.9 0.00 0.00 0.00 56 1020.5
20260506114526 25 319 0.0 0.9 0.00 0.00 0.00 56 1020.1
20260506111536 26 319 0.0 0.0 0.00 0.00 0.00 55 1019.6
20260506110116 26 316 0.0 0.0 0.00 0.00 0.00 56 1019.6
20260506104554 25 316 0.0 0.0 0.00 0.00 0.00 56 1019.6
20260506103016 25 315 0.0 0.0 0.00 0.00 0.00 56 1019.4
20260506101558 26 315 0.0 0.0 0.00 0.00 0.00 54 1019.3
20260506100031 28 315 0.0 0.0 0.00 0.00 0.00 55 1019.2
20260506094608 29 316 0.0 0.0 0.00 0.00 0.00 55 1019.0